{"data":{"norad_id":59346,"epoch":"2026-09-19T05:10:05.666304Z","epoch_age_seconds":129233,"freshness":"FRESH","line1":"1 59346U 24059A   26262.21534336  .00000151  00000+0  00000+0 0  9997","line2":"2 59346   0.0115 159.8428 0000130 315.2085 356.4780  1.00273241  9092","mean_motion":1.00273241,"eccentricity":1.3e-5,"inclination_deg":0.0115,"raan_deg":159.8428,"arg_perigee_deg":315.2085,"mean_anomaly_deg":356.478,"bstar":0,"rev_number":909,"period_min":1436.0760514363,"perigee_km":35785.638660266,"apogee_km":35786.734932685,"semimajor_km":42164.323796475,"source":"CELESTRAK","updated_at":"2026-09-20T09:00:35.336965Z"}}